Time,TemperatureF,DewpointF,PressureIn,WindDirection,WindDirectionDegrees,WindSpeedMPH,WindSpeedGustMPH,Humidity,HourlyPrecipIn,Conditions,Clouds,dailyrainin,SoftwareType,DateUTC
2013-05-24 00:02:00,77.0,71.0,29.99,SW,234,0.0,2.0,83,0.00,,,0.00,,2013-05-24 05:02:00,
2013-05-24 00:12:00,77.0,71.0,29.99,SW,234,0.0,2.0,83,0.00,,,0.00,,2013-05-24 05:12:00,
2013-05-24 00:22:00,76.0,71.0,29.99,SW,234,0.0,1.0,84,0.00,,,0.00,,2013-05-24 05:22:00,
2013-05-24 00:32:00,76.0,71.0,29.99,SW,234,0.0,0.0,84,0.00,,,0.00,,2013-05-24 05:32:00,
2013-05-24 00:42:00,76.0,71.0,29.99,SW,234,0.0,0.0,84,0.00,,,0.00,,2013-05-24 05:42:00,
2013-05-24 00:52:00,76.0,71.0,29.99,SW,234,0.0,3.0,85,0.00,,,0.00,,2013-05-24 05:52:00,
2013-05-24 01:02:00,76.0,72.0,29.99,SW,234,1.0,3.0,86,0.00,,,0.00,,2013-05-24 06:02:00,
2013-05-24 01:12:00,76.0,72.0,29.99,SW,234,1.0,3.0,86,0.00,,,0.00,,2013-05-24 06:12:00,
2013-05-24 01:21:00,76.0,72.0,29.99,SW,234,0.0,3.0,86,0.00,,,0.00,,2013-05-24 06:21:00,
2013-05-24 01:32:00,75.0,71.0,29.98,SW,234,0.0,1.0,86,0.00,,,0.00,,2013-05-24 06:32:00,
2013-05-24 01:42:00,75.0,71.0,29.98,SW,234,0.0,1.0,86,0.00,,,0.00,,2013-05-24 06:42:00,
2013-05-24 01:52:00,76.0,72.0,29.98,SW,234,1.0,2.0,86,0.00,,,0.00,,2013-05-24 06:52:00,
2013-05-24 02:01:00,76.0,71.0,29.99,SW,234,0.0,4.0,84,0.00,,,0.00,,2013-05-24 07:01:00,
2013-05-24 02:11:00,76.0,71.0,29.99,SW,234,0.0,4.0,84,0.00,,,0.00,,2013-05-24 07:11:00,
2013-05-24 02:22:00,76.0,71.0,29.99,SW,234,0.0,2.0,84,0.00,,,0.00,,2013-05-24 07:22:00,
2013-05-24 02:32:00,75.0,71.0,29.99,SW,234,0.0,1.0,86,0.00,,,0.00,,2013-05-24 07:32:00,
2013-05-24 02:42:00,75.0,71.0,29.99,SW,234,0.0,1.0,86,0.00,,,0.00,,2013-05-24 07:42:00,
2013-05-24 02:52:00,75.0,71.0,29.99,SW,234,0.0,1.0,87,0.00,,,0.00,,2013-05-24 07:52:00,
2013-05-24 03:02:00,75.0,71.0,29.99,SW,234,0.0,2.0,88,0.00,,,0.00,,2013-05-24 08:02:00,
2013-05-24 03:11:00,75.0,71.0,29.99,SW,234,0.0,2.0,88,0.00,,,0.00,,2013-05-24 08:11:00,
2013-05-24 03:22:00,74.0,70.0,29.99,SW,234,0.0,1.0,88,0.00,,,0.00,,2013-05-24 08:22:00,
2013-05-24 03:32:00,74.0,70.0,29.99,SW,234,0.0,3.0,88,0.00,,,0.00,,2013-05-24 08:32:00,
2013-05-24 03:42:00,74.0,70.0,29.99,SW,234,0.0,3.0,88,0.00,,,0.00,,2013-05-24 08:42:00,
2013-05-24 03:52:00,74.0,70.0,29.99,SW,234,1.0,3.0,88,0.00,,,0.00,,2013-05-24 08:52:00,
2013-05-24 04:01:00,74.0,71.0,29.99,SW,234,1.0,2.0,89,0.00,,,0.00,,2013-05-24 09:01:00,
2013-05-24 04:11:00,74.0,71.0,29.99,SW,234,1.0,2.0,89,0.00,,,0.00,,2013-05-24 09:11:00,
2013-05-24 04:21:00,74.0,71.0,29.99,SW,234,0.0,1.0,89,0.00,,,0.00,,2013-05-24 09:21:00,
2013-05-24 04:32:00,74.0,71.0,29.99,SW,234,1.0,3.0,90,0.00,,,0.00,,2013-05-24 09:32:00,
2013-05-24 04:42:00,74.0,71.0,29.99,SW,234,1.0,3.0,90,0.00,,,0.00,,2013-05-24 09:42:00,
2013-05-24 04:52:00,73.0,70.0,29.99,SW,234,0.0,2.0,90,0.00,,,0.00,,2013-05-24 09:52:00,
2013-05-24 05:03:00,73.0,70.0,30.00,SW,234,0.0,2.0,91,0.00,,,0.00,,2013-05-24 10:03:00,
2013-05-24 05:12:00,73.0,70.0,30.00,SW,234,0.0,2.0,91,0.00,,,0.00,,2013-05-24 10:12:00,
2013-05-24 05:22:00,73.0,71.0,30.00,SW,234,0.0,2.0,92,0.00,,,0.00,,2013-05-24 10:22:00,
2013-05-24 05:32:00,73.0,71.0,30.00,SW,234,0.0,1.0,92,0.00,,,0.00,,2013-05-24 10:32:00,
2013-05-24 05:42:00,73.0,71.0,30.00,SW,234,0.0,1.0,92,0.00,,,0.00,,2013-05-24 10:42:00,
2013-05-24 05:52:00,73.0,71.0,30.00,SW,234,0.0,2.0,92,0.00,,,0.00,,2013-05-24 10:52:00,
2013-05-24 06:02:00,72.0,70.0,30.01,SW,234,0.0,1.0,92,0.00,,,0.00,,2013-05-24 11:02:00,
2013-05-24 06:12:00,72.0,70.0,30.01,SW,234,0.0,1.0,92,0.00,,,0.00,,2013-05-24 11:12:00,
2013-05-24 06:22:00,72.0,70.0,30.01,SW,234,1.0,2.0,93,0.00,,,0.00,,2013-05-24 11:22:00,
2013-05-24 06:32:00,72.0,70.0,30.02,NE,53,2.0,5.0,93,0.00,,,0.00,,2013-05-24 11:32:00,
2013-05-24 06:42:00,72.0,70.0,30.02,NE,53,2.0,5.0,93,0.00,,,0.00,,2013-05-24 11:42:00,
2013-05-24 06:51:00,72.0,70.0,30.02,NNE,29,3.0,6.0,92,0.00,,,0.00,,2013-05-24 11:51:00,
2013-05-24 07:02:00,72.0,68.0,30.03,NE,53,4.0,8.0,88,0.00,,,0.00,,2013-05-24 12:02:00,
2013-05-24 07:11:00,72.0,68.0,30.03,NE,53,4.0,8.0,88,0.00,,,0.00,,2013-05-24 12:11:00,
2013-05-24 07:21:00,72.0,67.0,30.04,NE,44,4.0,10.0,83,0.00,,,0.00,,2013-05-24 12:21:00,
2013-05-24 07:32:00,73.0,67.0,30.05,ENE,57,4.0,9.0,81,0.00,,,0.00,,2013-05-24 12:32:00,
2013-05-24 07:42:00,73.0,67.0,30.05,ENE,57,4.0,9.0,81,0.00,,,0.00,,2013-05-24 12:42:00,
2013-05-24 07:52:00,73.0,66.0,30.05,NE,51,4.0,8.0,79,0.00,,,0.00,,2013-05-24 12:52:00,
2013-05-24 08:02:00,75.0,66.0,30.06,NE,48,3.0,7.0,74,0.00,,,0.00,,2013-05-24 13:02:00,
2013-05-24 08:11:00,75.0,66.0,30.06,NE,48,3.0,7.0,74,0.00,,,0.00,,2013-05-24 13:11:00,
2013-05-24 08:21:00,76.0,66.0,30.06,NE,37,5.0,9.0,72,0.00,,,0.00,,2013-05-24 13:21:00,
2013-05-24 08:32:00,76.0,66.0,30.07,NE,42,4.0,9.0,71,0.00,,,0.00,,2013-05-24 13:32:00,
2013-05-24 08:42:00,76.0,66.0,30.07,NE,42,4.0,9.0,71,0.00,,,0.00,,2013-05-24 13:42:00,
2013-05-24 08:52:00,77.0,66.0,30.07,NNE,29,4.0,13.0,68,0.00,,,0.00,,2013-05-24 13:52:00,
2013-05-24 09:01:00,78.0,64.0,30.08,ENE,66,5.0,11.0,63,0.00,,,0.00,,2013-05-24 14:01:00,
2013-05-24 09:11:00,78.0,64.0,30.08,ENE,66,5.0,11.0,63,0.00,,,0.00,,2013-05-24 14:11:00,
2013-05-24 09:21:00,79.0,63.0,30.08,NE,51,4.0,10.0,59,0.00,,,0.00,,2013-05-24 14:21:00,
2013-05-24 09:32:00,79.0,62.0,30.08,NE,50,5.0,10.0,57,0.00,,,0.00,,2013-05-24 14:32:00,
2013-05-24 09:42:00,79.0,62.0,30.08,NE,50,5.0,10.0,57,0.00,,,0.00,,2013-05-24 14:42:00,
2013-05-24 09:52:00,80.0,62.0,30.09,ESE,105,5.0,12.0,55,0.00,,,0.00,,2013-05-24 14:52:00,
2013-05-24 10:02:00,81.0,63.0,30.09,ENE,63,6.0,11.0,54,0.00,,,0.00,,2013-05-24 15:02:00,
2013-05-24 10:11:00,81.0,63.0,30.09,ENE,63,6.0,11.0,54,0.00,,,0.00,,2013-05-24 15:11:00,
2013-05-24 10:21:00,81.0,62.0,30.09,NNE,26,4.0,13.0,52,0.00,,,0.00,,2013-05-24 15:21:00,
2013-05-24 10:32:00,83.0,63.0,30.09,NE,44,3.0,13.0,51,0.00,,,0.00,,2013-05-24 15:32:00,
2013-05-24 10:43:00,83.0,63.0,30.09,NE,44,3.0,13.0,51,0.00,,,0.00,,2013-05-24 15:43:00,
2013-05-24 10:52:00,83.0,62.0,30.09,NE,47,5.0,11.0,50,0.00,,,0.00,,2013-05-24 15:52:00,
2013-05-24 11:03:00,84.0,62.0,30.09,North,5,4.0,9.0,48,0.00,,,0.00,,2013-05-24 16:03:00,
2013-05-24 11:12:00,84.0,62.0,30.09,North,5,4.0,9.0,48,0.00,,,0.00,,2013-05-24 16:12:00,
2013-05-24 11:22:00,85.0,62.0,30.10,NE,46,5.0,13.0,47,0.00,,,0.00,,2013-05-24 16:22:00,
2013-05-24 11:32:00,85.0,62.0,30.10,NNW,335,5.0,12.0,46,0.00,,,0.00,,2013-05-24 16:32:00,
2013-05-24 11:42:00,85.0,62.0,30.10,NNW,335,5.0,12.0,46,0.00,,,0.00,,2013-05-24 16:42:00,
2013-05-24 11:52:00,87.0,62.0,30.10,NE,34,2.0,10.0,44,0.00,,,0.00,,2013-05-24 16:52:00,
2013-05-24 12:02:00,86.0,62.0,30.10,North,10,7.0,14.0,45,0.00,,,0.00,,2013-05-24 17:02:00,
2013-05-24 12:12:00,86.0,62.0,30.10,North,10,7.0,14.0,45,0.00,,,0.00,,2013-05-24 17:12:00,
2013-05-24 12:22:00,87.0,62.0,30.10,NNW,336,4.0,10.0,43,0.00,,,0.00,,2013-05-24 17:22:00,
2013-05-24 12:32:00,87.0,64.0,30.10,NW,325,3.0,9.0,46,0.00,,,0.00,,2013-05-24 17:32:00,
2013-05-24 12:42:00,87.0,64.0,30.10,NW,325,3.0,9.0,46,0.00,,,0.00,,2013-05-24 17:42:00,
2013-05-24 12:52:00,85.0,63.0,30.10,North,9,6.0,10.0,48,0.00,,,0.00,,2013-05-24 17:52:00,
2013-05-24 13:01:00,86.0,63.0,30.09,North,355,5.0,11.0,47,0.00,,,0.00,,2013-05-24 18:01:00,
2013-05-24 13:12:00,86.0,63.0,30.09,North,355,5.0,11.0,47,0.00,,,0.00,,2013-05-24 18:12:00,
2013-05-24 13:21:00,86.0,63.0,30.09,NNW,342,9.0,15.0,47,0.00,,,0.00,,2013-05-24 18:21:00,
2013-05-24 13:32:00,86.0,63.0,30.09,WNW,299,7.0,13.0,47,0.00,,,0.00,,2013-05-24 18:32:00,
2013-05-24 13:42:00,86.0,63.0,30.09,WNW,299,7.0,13.0,47,0.00,,,0.00,,2013-05-24 18:42:00,
2013-05-24 13:51:00,86.0,65.0,30.09,NNW,329,6.0,14.0,49,0.00,,,0.00,,2013-05-24 18:51:00,
2013-05-24 14:01:00,86.0,65.0,30.09,North,360,4.0,15.0,49,0.00,,,0.00,,2013-05-24 19:01:00,
2013-05-24 14:11:00,86.0,65.0,30.09,North,360,4.0,15.0,49,0.00,,,0.00,,2013-05-24 19:11:00,
2013-05-24 14:21:00,86.0,63.0,30.09,NNW,346,6.0,14.0,47,0.00,,,0.00,,2013-05-24 19:21:00,
2013-05-24 14:32:00,86.0,63.0,30.09,NNW,347,6.0,14.0,47,0.00,,,0.00,,2013-05-24 19:32:00,
2013-05-24 14:41:00,86.0,63.0,30.09,NNW,347,6.0,14.0,47,0.00,,,0.00,,2013-05-24 19:41:00,
2013-05-24 14:52:00,87.0,60.0,30.09,NW,318,8.0,12.0,41,0.00,,,0.00,,2013-05-24 19:52:00,
2013-05-24 15:02:00,88.0,60.0,30.09,NE,54,6.0,14.0,39,0.00,,,0.00,,2013-05-24 20:02:00,
2013-05-24 15:11:00,88.0,60.0,30.09,NE,54,6.0,14.0,39,0.00,,,0.00,,2013-05-24 20:11:00,
2013-05-24 15:21:00,87.0,60.0,30.08,NNE,13,6.0,16.0,41,0.00,,,0.00,,2013-05-24 20:21:00,
2013-05-24 15:32:00,89.0,60.0,30.07,NNE,25,4.0,11.0,38,0.00,,,0.00,,2013-05-24 20:32:00,
2013-05-24 15:42:00,89.0,60.0,30.07,NNE,25,4.0,11.0,38,0.00,,,0.00,,2013-05-24 20:42:00,
2013-05-24 15:52:00,88.0,60.0,30.07,NE,36,5.0,15.0,39,0.00,,,0.00,,2013-05-24 20:52:00,
2013-05-24 16:01:00,89.0,61.0,30.07,North,355,7.0,13.0,39,0.00,,,0.00,,2013-05-24 21:01:00,
2013-05-24 16:11:00,89.0,61.0,30.07,North,355,7.0,13.0,39,0.00,,,0.00,,2013-05-24 21:11:00,
2013-05-24 16:21:00,88.0,62.0,30.07,NE,41,7.0,13.0,42,0.00,,,0.00,,2013-05-24 21:21:00,
2013-05-24 16:32:00,88.0,62.0,30.07,NE,41,7.0,13.0,42,0.00,,,0.00,,2013-05-24 21:32:00,
2013-05-24 16:42:00,88.0,62.0,30.07,NE,41,7.0,13.0,42,0.00,,,0.00,,2013-05-24 21:42:00,
2013-05-24 16:52:00,88.0,61.0,30.06,NW,325,7.0,15.0,40,0.00,,,0.00,,2013-05-24 21:52:00,
2013-05-24 17:02:00,88.0,60.0,30.06,North,11,8.0,13.0,39,0.00,,,0.00,,2013-05-24 22:02:00,
2013-05-24 17:12:00,88.0,60.0,30.06,North,11,8.0,13.0,39,0.00,,,0.00,,2013-05-24 22:12:00,
2013-05-24 17:22:00,88.0,60.0,30.05,NW,304,7.0,14.0,39,0.00,,,0.00,,2013-05-24 22:22:00,
2013-05-24 17:33:00,87.0,59.0,30.05,NNE,30,5.0,13.0,39,0.00,,,0.00,,2013-05-24 22:33:00,
2013-05-24 17:42:00,87.0,59.0,30.05,NNE,30,5.0,13.0,39,0.00,,,0.00,,2013-05-24 22:42:00,
2013-05-24 17:52:00,87.0,58.0,30.05,NNE,12,6.0,14.0,38,0.00,,,0.00,,2013-05-24 22:52:00,
2013-05-24 18:02:00,87.0,59.0,30.04,NNE,23,4.0,13.0,39,0.00,,,0.00,,2013-05-24 23:02:00,
2013-05-24 18:11:00,87.0,59.0,30.04,NNE,23,4.0,13.0,39,0.00,,,0.00,,2013-05-24 23:11:00,
2013-05-24 18:22:00,86.0,57.0,30.04,North,9,7.0,12.0,38,0.00,,,0.00,,2013-05-24 23:22:00,
2013-05-24 18:32:00,85.0,56.0,30.04,North,360,3.0,13.0,37,0.00,,,0.00,,2013-05-24 23:32:00,
2013-05-24 18:42:00,85.0,56.0,30.04,North,360,3.0,13.0,37,0.00,,,0.00,,2013-05-24 23:42:00,
2013-05-24 18:52:00,85.0,57.0,30.04,North,355,6.0,12.0,38,0.00,,,0.00,,2013-05-24 23:52:00,
2013-05-24 19:01:00,84.0,56.0,30.04,NNE,12,4.0,12.0,39,0.00,,,0.00,,2013-05-25 00:01:00,
2013-05-24 19:11:00,84.0,56.0,30.04,NNE,12,4.0,12.0,39,0.00,,,0.00,,2013-05-25 00:11:00,
2013-05-24 19:21:00,84.0,57.0,30.05,North,350,1.0,13.0,40,0.00,,,0.00,,2013-05-25 00:21:00,
2013-05-24 19:32:00,83.0,58.0,30.05,North,360,2.0,10.0,42,0.00,,,0.00,,2013-05-25 00:32:00,
2013-05-24 19:42:00,83.0,58.0,30.05,North,360,2.0,10.0,42,0.00,,,0.00,,2013-05-25 00:42:00,
2013-05-24 19:51:00,82.0,59.0,30.05,NNE,30,4.0,10.0,45,0.00,,,0.00,,2013-05-25 00:51:00,
2013-05-24 20:01:00,81.0,58.0,30.05,NNE,18,3.0,6.0,46,0.00,,,0.00,,2013-05-25 01:01:00,
2013-05-24 20:11:00,81.0,58.0,30.05,NNE,18,3.0,6.0,46,0.00,,,0.00,,2013-05-25 01:11:00,
2013-05-24 20:22:00,81.0,58.0,30.05,NNE,18,3.0,6.0,46,0.00,,,0.00,,2013-05-25 01:22:00,
2013-05-24 20:32:00,79.0,58.0,30.07,NE,43,2.0,9.0,49,0.00,,,0.00,,2013-05-25 01:32:00,
2013-05-24 20:42:00,79.0,58.0,30.07,NE,43,2.0,9.0,49,0.00,,,0.00,,2013-05-25 01:42:00,
2013-05-24 20:52:00,78.0,58.0,30.07,NE,42,2.0,5.0,50,0.00,,,0.00,,2013-05-25 01:52:00,
2013-05-24 21:02:00,77.0,57.0,30.08,North,11,2.0,5.0,51,0.00,,,0.00,,2013-05-25 02:02:00,
2013-05-24 21:11:00,77.0,57.0,30.08,North,11,2.0,5.0,51,0.00,,,0.00,,2013-05-25 02:11:00,
2013-05-24 21:21:00,77.0,59.0,30.09,NE,38,3.0,5.0,53,0.00,,,0.00,,2013-05-25 02:21:00,
2013-05-24 21:32:00,76.0,58.0,30.10,NE,40,1.0,5.0,54,0.00,,,0.00,,2013-05-25 02:32:00,
2013-05-24 21:42:00,76.0,58.0,30.10,NE,40,1.0,5.0,54,0.00,,,0.00,,2013-05-25 02:42:00,
2013-05-24 21:51:00,75.0,57.0,30.10,NE,44,2.0,4.0,54,0.00,,,0.00,,2013-05-25 02:51:00,
2013-05-24 22:01:00,74.0,56.0,30.11,NE,44,1.0,5.0,54,0.00,,,0.00,,2013-05-25 03:01:00,
2013-05-24 22:11:00,74.0,56.0,30.11,NE,44,1.0,5.0,54,0.00,,,0.00,,2013-05-25 03:11:00,
2013-05-24 22:21:00,74.0,54.0,30.11,NE,49,3.0,5.0,50,0.00,,,0.00,,2013-05-25 03:21:00,
2013-05-24 22:32:00,73.0,53.0,30.11,NE,38,3.0,6.0,50,0.00,,,0.00,,2013-05-25 03:32:00,
2013-05-24 22:43:00,73.0,53.0,30.11,NE,38,3.0,6.0,50,0.00,,,0.00,,2013-05-25 03:43:00,
2013-05-24 22:53:00,73.0,53.0,30.11,NE,44,4.0,6.0,50,0.00,,,0.00,,2013-05-25 03:53:00,
2013-05-24 23:02:00,72.0,53.0,30.11,NE,44,2.0,6.0,51,0.00,,,0.00,,2013-05-25 04:02:00,
2013-05-24 23:13:00,72.0,53.0,30.11,NE,44,2.0,6.0,51,0.00,,,0.00,,2013-05-25 04:13:00,
2013-05-24 23:23:00,71.0,52.0,30.11,NE,49,1.0,5.0,52,0.00,,,0.00,,2013-05-25 04:23:00,
2013-05-24 23:33:00,70.0,52.0,30.12,NE,49,1.0,4.0,52,0.00,,,0.00,,2013-05-25 04:33:00,
2013-05-24 23:43:00,70.0,52.0,30.12,NE,49,1.0,4.0,52,0.00,,,0.00,,2013-05-25 04:43:00,
2013-05-24 23:52:00,70.0,52.0,30.12,NE,49,1.0,4.0,53,0.00,,,0.00,,2013-05-25 04:52:00,